This is the latest recevied weather packets stored in our database for station/object KD4PMP. If no packets are shown the sender has not sent any weather packets the latest 10 day(s).
| Time | Temp. | Humidity | Pressure | Rain* | Wind** | Luminosity | Snow |
|---|---|---|---|---|---|---|---|
| 1777917594 | 26.67° C | 47% | 1011.5 hPa | 0 mm | - | - | - |
| 1777917024 | 26.67° C | 48% | 1011.6 hPa | 0 mm | - | - | - |
| 1777916423 | 26.11° C | 49% | 1011.8 hPa | 0 mm | - | - | - |
| 1777915793 | 26.11° C | 47% | 1011.8 hPa | 0 mm | - | - | - |
| 1777915223 | 26.11° C | 49% | 1012 hPa | 0 mm | - | - | - |
| 1777914594 | 25.56° C | 51% | 1012.2 hPa | 0 mm | - | - | - |
| 1777914022 | 25.56° C | 52% | 1012.4 hPa | 0 mm | - | - | - |
| 1777913422 | 25° C | 52% | 1012.4 hPa | 0 mm | - | - | - |
| 1777912822 | 25° C | 52% | 1012.8 hPa | 0 mm | - | - | - |
| 1777912222 | 25° C | 52% | 1012.8 hPa | 0 mm | - | - | - |
| 1777911621 | 24.44° C | 52% | 1012.9 hPa | 0 mm | - | - | - |
| 1777911021 | 23.89° C | 53% | 1013.1 hPa | 0 mm | - | - | - |
| 1777910421 | 23.89° C | 54% | 1013.1 hPa | 0 mm | - | - | - |
| 1777909821 | 23.89° C | 54% | 1013.1 hPa | 0 mm | - | - | - |
| 1777909220 | 23.33° C | 54% | 1013.4 hPa | 0 mm | - | - | - |
| 1777908620 | 23.33° C | 57% | 1013.4 hPa | 0 mm | - | - | - |
| 1777908019 | 23.33° C | 56% | 1013.4 hPa | 0 mm | - | - | - |
| 1777907419 | 22.78° C | 56% | 1013.4 hPa | 0 mm | - | - | - |
| 1777906819 | 22.22° C | 59% | 1013.3 hPa | 0 mm | - | - | - |
| 1777906218 | 21.67° C | 57% | 1013.4 hPa | 0 mm | - | - | - |
| 1777905618 | 21.67° C | 59% | 1013.3 hPa | 0 mm | - | - | - |
| 1777905018 | 21.11° C | 60% | 1013.4 hPa | 0 mm | - | - | - |
| 1777904417 | 20.56° C | 60% | 1013.5 hPa | 0 mm | - | - | - |
| 1777903817 | 20° C | 63% | 1013.6 hPa | 0 mm | - | - | - |
| 1777903217 | 19.44° C | 64% | 1013.7 hPa | 0 mm | - | - | - |
* Rain latest hour (hover to see other rain measurements)
** Current wind speed in m/s (hover to see current wind gust speed)